ASTRA 3B

Last updated on Nov. 14, 2019, 4:21 a.m. UTC

1 36581U 10021A   19317.48352337  .00000151  00000-0  00000+0 0  9999
2 36581   0.0540 308.5001 0002857 283.8796  17.5347  1.00270212 34500
UTC
Height (km)
Latitude
Longitude
Inclination
Orbital Period
UTC large
Height (km)
Speed (km/s)
/
Latitude / Longitude
Inclination (degrees)
Orbital Period (minutes)
Azimuth
Elevation
Range (km)
Doppler Factor
iOS Compass Heading
iOS Angle

Next 30 passes for location: Hong Kong

Rise time Rise Azimuth (degrees) Set time Set Azimuth (degrees) Duration Max altitude (degrees)

No matching passes for this satellites